www.pogodaiklimat.ru

Погода и климат >> Архив погоды >> Россия >> Татарстан >> Казань


АРХИВ ПОГОДЫ в Казани

Время (UTC), дата Ветер
(напр.,м/с)
 
Видим.   Явления Облачность Т
(С)
Тd
(С)
f
(%)
Тe
(С)
Тes
(С)
Комфортность P
(гПа)
Po
(гПа)
Тmin
(С)
Tmax
(С)
R
(мм)
R24
(мм)
S
(см)
12 12.10 З 4 10 км 10/4 600 м
[Sc As op]
+6.8 -1.0 58 +4 +4 по сезону 1025.1 1010.3
15 12.10 СЗ 3 10 км 10/5 600 м
[Sc As op]
+6.6 -0.3 61 +4 +4 по сезону 1024.3 1009.6 +7.2
18 12.10 СЗ 2 10 км 10/0
[Ac As]
+5.8 +0.4 68 +4 +4 по сезону 1023.4 1008.6
21 12.10 СЗ 1 10 км 10/6 600 м
[Sc Ac trans]
+5.0 +1.1 76 +4 +4 по сезону 1023.0 1008.2
00 13.10 СЗ 1 10 км 9/0
[Ac trans]
+3.9 +1.4 84 +3 +3 по сезону 1023.0 1008.1
03 13.10 СЗ 2 10 км 8/0
[Ac trans]
+2.8 +1.8 93 -0 -0 прохладно 1023.3 1008.4 +2.7
06 13.10 СЗ 2 10 км 8/3 300 м
[Sc Ac lent]
+3.8 +2.2 89 +1 +1 по сезону 1023.7 1008.8
09 13.10 З 3 10 км 8/3 600 м
[Cb calv Ac lent Ci]
+7.5 +1.4 65 +5 +6 по сезону 1023.2 1008.5
12 13.10 СЗ 3 10 км 9/8 300 м
[Cb calv Cc]
+8.6 +0.1 55 +6 +7 по сезону 1022.5 1007.9
15 13.10 С 1 10 км 8/4 600 м
[Sc Ac cast Ci fib]
+5.5 +1.2 74 +5 +5 по сезону 1022.9 1008.2 +9.2
18 13.10 СЗ 1 10 км 8/8 600 м
[Sc]
+3.7 +0.9 82 +2 +2 по сезону 1022.9 1008.1
21 13.10 штиль 0 10 км 3/0
[Ci fib]
+1.9 -1.2 80 +1 +1 по сезону 1023.8 1008.8
00 14.10 С 1 10 км 3/0
[Ci fib]
-0.4 -1.6 92 -3 -3 прохладно 1024.2 1009.0
03 14.10 СЗ 1 10 км ясно -1.3 -1.6 98 -4 -4 холодно 1024.6 1009.4 -1.5
06 14.10 СЗ 1 10 км 4/0
[Ci fib]
+3.2 -2.2 68 +2 +4 по сезону 1024.9 1009.9
09 14.10 СЗ 2 10 км 8/0
[Ac lent Ci]
+5.7 -2.7 55 +4 +6 по сезону 1024.5 1009.7
12 14.10 СЗ 1 10 км 8/0
[Ac lent Ci]
+6.0 -3.5 51 +5 +6 по сезону 1023.7 1008.9
15 14.10 С 1 10 км 10/0
[Ac As]
+4.9 -3.3 55 +4 +4 по сезону 1023.6 1008.8 +6.5
18 14.10 СЗ 1 10 км 10/10 600 м
[Sc]
+4.7 -3.3 56 +4 +4 по сезону 1023.8 1009.0
21 14.10 Ю 1 10 км 10/9 600 м
[Sc As op]
+3.7 -2.4 64 +3 +3 по сезону 1023.3 1008.4
00 15.10 ЮВ 1 10 км 10/9 600 м
[Sc As op]
+3.4 -1.5 70 +2 +2 по сезону 1023.2 1008.3
03 15.10 ЮВ 1 10 км 10/9 600 м
[Sc As op]
+3.5 -0.9 73 +2 +2 по сезону 1023.0 1008.1 +3.2
06 15.10 Ю 1 10 км 10/0
[As op]
+5.4 0.0 68 +5 +5 по сезону 1022.1 1007.3
09 15.10 ЮЗ 3 10 км 10/0
[As op]
+6.6 +1.8 71 +4 +4 по сезону 1021.6 1007.0
12 15.10 ЮЗ 1 10 км слабая морось 10/10 300 м
[St]
+6.9 +5.7 92 +6 +6 по сезону 1021.7 1007.0
15 15.10 ЮВ 1 4000 м слабая морось 10/10 300 м
[St]
+6.7 +6.7 100 +5 +5 по сезону 1022.0 1007.4 +7.4
18 15.10 З 1 4000 м дымка {морось} 10/10 300 м
[St]
+7.7 +7.7 100 +7 +7 тепло 1021.5 1006.9
21 15.10 З 1 500 м туман {морось} 10/10 100 м
[St]
+10.0 +10.0 100 +9 +9 тепло 1020.6 1006.1
00 16.10 З 2 10 км {морось, туман} 10/10 600 м
[Sc]
+10.3 +10.3 100 +9 +9 тепло 1020.1 1005.6
03 16.10 СЗ 2 10 км 10/10 600 м
[Sc]
+8.8 +8.8 100 +7 +7 тепло 1020.5 1006.0 +6.6
06 16.10 З 3 4000 м дымка 10/10 200 м
[St]
+8.3 +8.3 100 +5 +5 по сезону 1020.7 1006.2
09 16.10 СЗ 3 10 км 3/3 600 м
[Sc]
+10.8 +8.7 87 +9 +11 тепло 1020.7 1006.3
12 16.10 З 3 10 км 5/0
[Ci fib]
+15.8 +7.4 57 +15 +16 тепло 1019.8 1005.6
15 16.10 З 1 10 км 6/0
[Cc]
+12.8 +6.7 66 +13 +13 тепло 1019.9 1005.5 +16.1
18 16.10 З 2 10 км 8/0
[Cc]
+10.9 +6.4 74 +10 +10 тепло 1019.0 1004.6
21 16.10 З 2 10 км 3/0
[Cc]
+10.4 +6.1 75 +9 +9 тепло 1017.8 1003.4
00 17.10 ЮЗ 2 10 км 5/0
[Ac trans]
+8.8 +4.9 76 +7 +7 тепло 1016.2 1001.7
03 17.10 З 3 10 км 1/0
[Ci fib]
+7.8 +4.7 81 +5 +5 по сезону 1015.6 1001.1 +7.8
06 17.10 СЗ 3 10 км 9/0
[Ac trans Ci fib]
+8.8 +5.4 79 +6 +7 тепло 1016.0 1001.5 +7.6
09 17.10 СЗ 3 10 км 6/3 600 м
[Cu hum Ac trans Ci fib]
+12.7 +5.2 60 +11 +13 тепло 1017.5 1003.1
12 17.10 СЗ 3 10 км 9/6 600 м
[Cu med, cong Ac trans Ci fib]
+12.4 +3.4 54 +11 +11 тепло 1020.0 1005.6
15 17.10 С 2 10 км ясно +9.2 +0.7 55 +8 +8 тепло 1023.5 1008.9 +13.4
18 17.10 С 2 10 км 3/0
[Ci fib]
+7.0 +0.2 62 +5 +5 по сезону 1025.1 1010.4
21 17.10 штиль 0 10 км 3/0
[Ci fib]
+3.2 0.0 80 +2 +2 по сезону 1026.1 1011.2
00 18.10 СЗ 1 10 км 5/0
[Ci fib]
+3.1 +0.9 85 +2 +2 по сезону 1026.6 1011.6
03 18.10 СЗ 1 10 км 9/0
[Ac trans Ci fib]
+2.9 +0.9 87 +1 +1 по сезону 1026.5 1011.6 +1.3
06 18.10 СЗ 1 10 км 6/0
[Ac trans Ci sp]
+5.7 +1.9 77 +5 +6 по сезону 1026.4 1011.6
09 18.10 З 2 10 км 4/0
[Ci sp]
+10.6 +0.9 51 +10 +13 тепло 1024.8 1010.3
12 18.10 З 3 10 км 9/0
[Ac trans]
+11.6 +0.8 47 +10 +11 тепло 1022.7 1008.2
15 18.10 ЮЗ 3 10 км 9/0
[Ac trans]
+10.6 +3.4 61 +9 +9 тепло 1021.1 1006.6 +12.6
18 18.10 З 2 10 км 3/0
[Ac lent]
+9.9 +4.4 69 +9 +9 тепло 1019.3 1004.8
21 18.10 З 1 10 км 4/0
[Ci fib]
+9.4 +6.5 82 +9 +9 тепло 1018.2 1003.7
00 19.10 ЮЗ 3 10 км 5/0
[Ac trans]
+8.8 +4.9 76 +6 +6 тепло 1016.2 1001.7
03 19.10 ЮЗ 2 10 км 3/0
[Ci fib]
+7.5 +6.1 91 +5 +5 тепло 1016.0 1001.5 +7.5
06 19.10 ЮЗ 2 10 км ясно +8.9 +6.6 85 +7 +8 тепло 1015.4 1000.9 +7.3

 

Местоположение метеостанции Казань (Татарстан, Россия): широта 55.73 долгота 49.20 высота над уровнем моря 119 м.

В архиве по умолчанию представлена погода в Казани за последнюю неделю. Архивные данные за месяц целиком и за предыдущие месяцы, начиная с января 2011 года, Вы можете получить, выбрав интересующий диапазон дат из раскрывающегося списка и нажав кнопку "Ввод!".


*Определитесь, кто Вы:
робот инопланетянин человек

Внимание! Время в таблицах - всемирное. Для получения местного времени необходимо прибавить поправку, которая в Казани равна 3 ч.

Смотрите также архив погоды в соседних городах и на ближайших метеорологических станциях:

Погода в Лаишево (Татарстан, Россия) (40 км)
Погода в Вязовых (Татарстан, Россия) (44 км)
Погода в Арске (Татарстан, Россия) (57 км)
Погода в Камском Устье (Татарстан, Россия) (58 км)
Погода в Больших Кайбицах (Татарстан, Россия) (74 км)
Погода в Алексеевском (Татарстан, Россия) (74 км)
Погода в Морках (Марий-Эл, Россия) (79 км)
Погода в Богатых Сабах (Татарстан, Россия) (84 км)
Погода в Тетюшах (Татарстан, Россия) (91 км)
Погода в Чистополе (Татарстан, Россия) (102 км)

Пояснения к столбцам:

Ветер - указаны скорость ветра в м/с - средняя за 10 мин, порывы в срок и между сроками (в фигурных скобках) и направление, откуда дует ветер: С - северный, СВ - северо-восточный, В - восточный, ЮВ - юго-восточный, Ю - южный, ЮЗ - юго-западный, З - западный, СЗ - северо-западный.
Видимость - горизонтальная дальность видимости в метрах или километрах. При видимости от 1 до 10 км при отсутствии осадков обычно наблюдается дымка, при ухудшении видимости до 1 км и менее - туман. В сухую погоду видимость может ухудшаться дымом, пылью или мглою.
Явления - указаны атмосферные явления, наблюдавшиеся в срок или в последний час перед сроком; фигурными скобками обозначены явления, наблюдавшиеся между сроками (за 1-3 часа до срока); квадратными скобками обозначены град или гололедные отложения с указанием их диаметра в мм.
Облачность - указаны через наклонную черту общая и нижняя облачность в баллах и высота нижней границы облаков в метрах; квадратными скобками обозначены формы облаков: Ci - перистые, Cs - перисто-слоистые, Cc - перисто-кучевые, Ac - высококучевые, As - высокослоистые, Sc - слоисто-кучевые, Ns - слоисто-дождевые, Cu - кучевые, Cb - кучево-дождевые. Подробнее классификацию облаков см. в Атласе облаков (PDF).
T - Температура воздуха - температура, измеренная на высоте 2 м над землей.
Td - Температура точки росы - температура, при понижении до которой содержащийся в воздухе водяной пар достигнет насыщения.
f - Относительная влажность воздуха - влажноcть воздуха, измеренная на высоте 2 м над землей.
Te - Эффективная температура - температура, которую ощущает одетый по сезону человек в тени. Характеристика душности погоды. При расчете учитывается влияние влажности воздуха и скорости ветра на теплоощущения человека.
Tes - Эффективная температура на солнце - температура, которую ощущает человек, с поправкой на солнечный нагрев. Характеристика знойности погоды. Зависит от высоты солнца над горизонтом, облачности и скорости ветра. Ночью, в пасмурную погоду, а также при ветре 12 м/с и более поправка равна нулю.
P - Атмосферное давление - приведенное к уровню моря атмосферное давление.
Po - Атмосферное давление - измеренное на уровне метеостанции атмосферное давление.
Tmin - Минимальная температура - минимум температуры воздуха на высоте 2 м над землей.
Tmax - Максимальная температура - максимум температуры воздуха на высоте 2 м над землей.
R - Количество осадков - Количество выпавших осадков за период времени, мм. При наведении курсора мыши на число - период времени, за который выпало указанное количество осадков.
R24 - Количество осадков - Количество выпавших осадков за 24 часа, мм.
S - Снежный покров - Высота снежного покрова, см. При наведении курсора мыши на число - состояние снежного покрова и степень покрытия местности в баллах.